This is the latest recevied weather packets stored in our database for station/object N5SRF. If no packets are shown the sender has not sent any weather packets the latest 10 day(s).
| Time | Temp. | Humidity | Pressure | Rain* | Wind** | Luminosity | Snow |
|---|---|---|---|---|---|---|---|
| 1787833091 | 25° C | 99% | 1018.9 hPa | 0 mm | - | 2 W/m² | - |
| 1787832786 | 25° C | 99% | 1018.8 hPa | 0 mm | - | 1 W/m² | - |
| 1787832482 | 25° C | 98% | 1018.5 hPa | 1.27 mm | - | 1 W/m² | - |
| 1787832176 | 25° C | 98% | 1018.3 hPa | 1.27 mm | - | 1 W/m² | - |
| 1787831874 | 25° C | 98% | 1018.4 hPa | 0 mm | - | 1 W/m² | - |
| 1787831569 | 25° C | 97% | 1018.5 hPa | 0 mm | - | 1 W/m² | - |
| 1787831268 | 25° C | 96% | 1018.6 hPa | 0 mm | - | 0 W/m² | - |
| 1787830965 | 25° C | 95% | 1018.8 hPa | 1.78 mm | - | 0 W/m² | - |
| 1787830663 | 25° C | 94% | 1018.9 hPa | 1.78 mm | - | 0 W/m² | - |
| 1787830357 | 25.56° C | 93% | 1018.5 hPa | 1.27 mm | - | 0 W/m² | - |
| 1787830057 | 25.56° C | 92% | 1018.3 hPa | 1.27 mm | - | 0 W/m² | - |
| 1787829756 | 26.11° C | 91% | 1018.4 hPa | 1.78 mm | - | 0 W/m² | - |
| 1787829451 | 26.67° C | 89% | 1018.2 hPa | 1.78 mm | - | 0 W/m² | - |
| 1787829148 | 26.67° C | 88% | 1018 hPa | 0 mm | - | 0 W/m² | - |
| 1787828844 | 26.67° C | 87% | 1018.1 hPa | 0 mm | - | 0 W/m² | - |
| 1787828541 | 26.67° C | 86% | 1017.9 hPa | 0 mm | - | 0 W/m² | - |
| 1787828239 | 26.67° C | 86% | 1017.9 hPa | 0 mm | - | 0 W/m² | - |
| 1787827938 | 26.67° C | 85% | 1017.7 hPa | 0 mm | - | 0 W/m² | - |
| 1787827639 | 26.67° C | 85% | 1018 hPa | 0 mm | - | 0 W/m² | - |
| 1787827334 | 26.67° C | 84% | 1018 hPa | 0 mm | - | 0 W/m² | - |
| 1787827032 | 27.22° C | 84% | 1017.9 hPa | 0 mm | - | 0 W/m² | - |
| 1787826727 | 27.22° C | 83% | 1018.1 hPa | 0 mm | - | 0 W/m² | - |
| 1787826422 | 27.22° C | 83% | 1018 hPa | 0 mm | - | 0 W/m² | - |
| 1787826119 | 27.22° C | 82% | 1018.4 hPa | 0 mm | - | 0 W/m² | - |
| 1787825817 | 27.78° C | 81% | 1018.5 hPa | 0 mm | - | 0 W/m² | - |
* Rain latest hour (hover to see other rain measurements)
** Current wind speed in m/s (hover to see current wind gust speed)